GW2298 Weather Reports


time (UTC)temp
C
wind
direction
speed
KPH
gust
KPH
rain 1hr
cm
rain 24hr
cm
rain mn
cm
humidity
%
barometer
mb
20260505112020 2 232 0.0 0.0 0.00 0.00 0.00 76 4461.7
20260505111514 2 232 3.2 3.2 0.00 0.00 0.00 76 4461.7
20260505111011 3 232 0.0 0.0 0.00 0.00 0.00 78 4461.7
20260505110508 3 232 0.0 0.0 0.00 0.00 0.00 76 4461.7
20260505101939 3 236 0.0 0.0 0.00 0.00 0.00 68 4461.7
20260505101432 3 236 0.0 0.0 0.00 0.00 0.00 67 4461.7
20260505100928 4 244 1.6 3.2 0.00 0.00 0.00 66 4461.3
20260505100426 3 233 0.0 0.0 0.00 0.00 0.00 68 4461.3
20260505095921 3 232 3.2 3.2 0.00 0.00 0.00 69 4461.3
20260505095419 4 231 0.0 3.2 0.00 0.00 0.00 67 4461.3
20260505094914 5 229 1.6 3.2 0.00 0.00 0.00 64 4461.3
20260505094412 4 265 4.8 4.8 0.00 0.00 0.00 65 4461.0
20260505093908 4 257 0.0 0.0 0.00 0.00 0.00 64 4461.3
20260505093405 5 257 0.0 0.0 0.00 0.00 0.00 63 4461.0
20260505092902 5 257 0.0 0.0 0.00 0.00 0.00 62 4461.0
20260505092400 5 256 1.6 3.2 0.00 0.00 0.00 62 4461.3
20260505091857 5 255 1.6 3.2 0.00 0.00 0.00 63 4461.0
20260505091355 5 280 3.2 3.2 0.00 0.00 0.00 64 4461.3
20260505090853 5 247 0.0 0.0 0.00 0.00 0.00 61 4461.3
20260505090351 5 247 0.0 0.0 0.00 0.00 0.00 60 4461.0
20260505085848 5 249 0.0 0.0 0.00 0.00 0.00 62 4461.0
20260505085345 6 303 3.2 3.2 0.00 0.00 0.00 62 4461.3
20260505084843 6 293 4.8 4.8 0.00 0.00 0.00 56 4461.3
20260505084341 6 273 1.6 3.2 0.00 0.00 0.00 58 4461.0
20260505083838 7 271 0.0 3.2 0.00 0.00 0.00 55 4461.0
20260505083336 7 265 0.0 0.0 0.00 0.00 0.00 53 4461.3
20260505082832 7 348 6.4 8.0 0.00 0.00 0.00 47 4461.0
20260505082328 7 278 0.0 0.0 0.00 0.00 0.00 52 4461.3
20260505081825 8 221 9.7 11.3 0.00 0.00 0.00 50 4461.0
20260505081322 8 265 9.7 11.3 0.00 0.00 0.00 48 4461.0
20260505080819 8 282 4.8 4.8 0.00 0.00 0.00 50 4461.0
20260505080314 8 286 4.8 4.8 0.00 0.00 0.00 51 4461.0
20260505075810 8 306 8.0 8.0 0.00 0.00 0.00 50 4461.0
20260505075307 7 287 4.8 8.0 0.00 0.00 0.00 51 4461.3
20260505074805 8 310 1.6 3.2 0.00 0.00 0.00 52 4461.3
20260505074302 8 320 6.4 8.0 0.00 0.00 0.00 49 4461.0
20260505073759 7 298 3.2 4.8 0.00 0.00 0.00 53 4461.0
20260505073257 7 305 3.2 4.8 0.00 0.00 0.00 53 4461.0
20260505072754 8 310 1.6 3.2 0.00 0.00 0.00 54 4461.0
20260505072250 8 313 4.8 4.8 0.00 0.00 0.00 52 4461.3
20260505071745 10 286 3.2 4.8 0.00 0.00 0.00 49 4461.3
20260505071242 10 357 6.4 8.0 0.00 0.00 0.00 44 4461.0
20260505070740 10 39 9.7 11.3 0.00 0.00 0.00 44 4461.0
20260505070236 10 53 19.3 27.4 0.00 0.00 0.00 43 4460.5
20260505065732 9 62 16.1 24.1 0.00 0.00 0.00 45 4460.5
20260505065229 9 354 4.8 4.8 0.00 0.00 0.00 50 4460.5
20260505064726 8 349 6.4 8.0 0.00 0.00 0.00 50 4461.0
20260505064224 8 2 8.0 8.0 0.00 0.00 0.00 51 4460.5
20260505063721 8 327 4.8 4.8 0.00 0.00 0.00 51 4460.5
20260505063217 8 331 3.2 4.8 0.00 0.00 0.00 52 4460.5
20260505062713 8 343 4.8 4.8 0.00 0.00 0.00 51 4460.5
20260505062211 9 353 6.4 8.0 0.00 0.00 0.00 51 4460.5
20260505061708 9 3 6.4 8.0 0.00 0.00 0.00 50 4460.2
20260505061206 9 355 4.8 4.8 0.00 0.00 0.00 51 4460.2
20260505060703 9 354 6.4 11.3 0.00 0.00 0.00 52 4460.2
20260505060200 10 338 3.2 3.2 0.00 0.00 0.00 51 4460.2
20260505055655 10 27 6.4 8.0 0.00 0.00 0.00 46 4459.9
20260505055152 11 32 9.7 14.5 0.00 0.00 0.00 45 4459.9
20260505054649 11 47 9.7 11.3 0.00 0.00 0.00 45 4459.9
20260505054147 11 58 8.0 11.3 0.00 0.00 0.00 46 4459.9
20260505053645 11 59 9.7 14.5 0.00 0.00 0.00 45 4459.9
20260505053141 11 17 8.0 11.3 0.00 0.00 0.00 45 4459.9
20260505052638 11 21 6.4 8.0 0.00 0.00 0.00 44 4459.9
20260505052135 11 13 4.8 8.0 0.00 0.00 0.00 45 4459.9
20260505051632 11 12 4.8 4.8 0.00 0.00 0.00 45 4459.5
20260505051130 11 357 6.4 8.0 0.00 0.00 0.00 46 4459.9
20260505050628 11 25 8.0 11.3 0.00 0.00 0.00 45 4459.5
20260505050126 11 30 11.3 16.1 0.00 0.00 0.00 46 4459.9
20260505041555 12 48 8.0 11.3 0.00 0.00 0.00 45 4459.5
20260505041053 12 36 11.3 14.5 0.00 0.00 0.00 44 4459.2
20260505040550 12 70 16.1 16.1 0.00 0.00 0.00 44 4459.2
20260505040047 12 58 19.3 24.1 0.00 0.00 0.00 43 4459.5
20260505035543 12 55 29.0 38.6 0.00 0.00 0.00 42 4459.2
20260505035040 12 64 12.9 16.1 0.00 0.00 0.00 43 4459.2
20260505034536 13 58 19.3 22.5 0.00 0.00 0.00 43 4459.2
20260505034033 13 64 9.7 19.3 0.00 0.00 0.00 44 4459.2
20260505033530 13 49 11.3 14.5 0.00 0.00 0.00 43 4459.2
20260505033029 13 96 9.7 11.3 0.00 0.00 0.00 42 4458.7
20260505032526 13 64 14.5 22.5 0.00 0.00 0.00 41 4458.7
20260505032022 13 50 22.5 27.4 0.00 0.00 0.00 41 4458.4
20260505031520 13 78 17.7 27.4 0.00 0.00 0.00 41 4458.4
20260505031016 13 59 19.3 22.5 0.00 0.00 0.00 42 4458.4
20260505030513 13 53 20.9 24.1 0.00 0.00 0.00 42 4458.1
20260505030009 13 57 16.1 19.3 0.00 0.00 0.00 44 4458.1
20260505025505 14 76 9.7 11.3 0.00 0.00 0.00 44 4458.4
20260505025004 14 59 11.3 14.5 0.00 0.00 0.00 42 4458.1
20260505024500 15 46 12.9 16.1 0.00 0.00 0.00 41 4458.1
20260505023958 15 52 11.3 14.5 0.00 0.00 0.00 40 4458.1
20260505023454 15 39 11.3 16.1 0.00 0.00 0.00 41 4457.7
20260505022952 15 53 11.3 16.1 0.00 0.00 0.00 41 4457.7
20260505022449 16 88 6.4 11.3 0.00 0.00 0.00 42 4457.7
20260505021947 16 84 6.4 11.3 0.00 0.00 0.00 38 4457.3
20260505021443 16 210 1.6 3.2 0.00 0.00 0.00 38 4457.7
20260505020939 16 282 3.2 3.2 0.00 0.00 0.00 39 4457.3
20260505020434 16 197 3.2 8.0 0.00 0.00 0.00 38 4457.3
20260505015931 16 79 4.8 4.8 0.00 0.00 0.00 39 4457.3
20260505015428 16 20 8.0 8.0 0.00 0.00 0.00 38 4457.3
20260505014926 16 331 24.1 30.6 0.00 0.00 0.00 37 4457.3
20260505014422 16 168 3.2 4.8 0.00 0.00 0.00 39 4457.0
20260505013919 16 225 8.0 11.3 0.00 0.00 0.00 40 4457.0
20260505013416 16 159 4.8 8.0 0.00 0.00 0.00 40 4457.0
20260505012914 16 114 9.7 14.5 0.00 0.00 0.00 39 4457.0
20260505012412 16 297 6.4 11.3 0.00 0.00 0.00 39 4457.0
20260505011908 17 127 6.4 8.0 0.00 0.00 0.00 39 4457.0
20260505011405 17 172 4.8 4.8 0.00 0.00 0.00 38 4457.0
20260505010901 18 95 8.0 14.5 0.00 0.00 0.00 38 4457.0
20260505010357 18 351 6.4 8.0 0.00 0.00 0.00 37 4457.0
20260505005853 18 217 3.2 3.2 0.00 0.00 0.00 38 4457.0
20260505005350 18 79 4.8 8.0 0.00 0.00 0.00 37 4457.0
20260505004848 18 183 1.6 3.2 0.00 0.00 0.00 38 4457.0
20260505004344 18 275 3.2 3.2 0.00 0.00 0.00 37 4457.0
20260505003841 18 227 4.8 4.8 0.00 0.00 0.00 39 4457.0
20260505003338 18 215 6.4 8.0 0.00 0.00 0.00 37 4457.0
20260505002834 18 180 3.2 4.8 0.00 0.00 0.00 40 4457.0
20260505002331 18 73 4.8 8.0 0.00 0.00 0.00 38 4457.0
20260505001830 18 224 8.0 8.0 0.00 0.00 0.00 40 4457.0
20260505001326 18 167 6.4 8.0 0.00 0.00 0.00 40 4457.0
20260505000824 18 194 11.3 16.1 0.00 0.00 0.00 38 4457.3
20260505000321 18 220 8.0 16.1 0.00 0.00 0.00 40 4457.0
20260504235818 18 194 8.0 11.3 0.00 0.00 0.00 39 4457.0
20260504235315 19 186 4.8 8.0 0.00 0.00 0.00 38 4457.0
20260504234811 20 154 6.4 8.0 0.00 0.00 0.00 37 4456.6
20260504234309 20 116 4.8 8.0 0.00 0.00 0.00 37 4456.6
20260504233805 20 199 9.7 16.1 0.00 0.00 0.00 38 4457.0
20260504233301 20 280 8.0 11.3 0.00 0.00 0.00 38 4457.0
20260504232758 20 345 8.0 16.1 0.00 0.00 0.00 37 4456.6
20260504232255 20 60 6.4 8.0 0.00 0.00 0.00 37 4456.6
20260504231752 19 225 9.7 11.3 0.00 0.00 0.00 36 4457.0
20260504231248 19 136 6.4 8.0 0.00 0.00 0.00 38 4456.6
20260504230744 18 183 3.2 4.8 0.00 0.00 0.00 38 4456.6
20260504230243 18 153 3.2 4.8 0.00 0.00 0.00 37 4457.0
20260504225741 19 201 6.4 8.0 0.00 0.00 0.00 38 4456.6
20260504225237 19 168 4.8 4.8 0.00 0.00 0.00 36 4456.6
20260504224735 19 172 4.8 4.8 0.00 0.00 0.00 37 4456.6
20260504224232 20 332 4.8 8.0 0.00 0.00 0.00 35 4456.6
20260504223728 20 241 6.4 11.3 0.00 0.00 0.00 36 4456.6
20260504223223 20 231 3.2 4.8 0.00 0.00 0.00 32 4456.6
20260504222721 20 232 0.0 0.0 0.00 0.00 0.00 33 4456.6
20260504222218 20 343 3.2 4.8 0.00 0.00 0.00 34 4456.6
20260504221715 20 343 4.8 8.0 0.00 0.00 0.00 36 4456.6
20260504221212 20 321 3.2 4.8 0.00 0.00 0.00 34 4457.0
20260504220708 20 325 4.8 8.0 0.00 0.00 0.00 33 4456.6
20260504220206 20 195 1.6 3.2 0.00 0.00 0.00 34 4456.6
20260504215702 19 339 3.2 4.8 0.00 0.00 0.00 34 4456.6
20260504215200 18 12 8.0 8.0 0.00 0.00 0.00 33 4457.0
20260504214655 19 65 8.0 14.5 0.00 0.00 0.00 34 4457.0
20260504214152 19 30 4.8 4.8 0.00 0.00 0.00 35 4457.0
20260504213649 20 28 11.3 11.3 0.00 0.00 0.00 35 4456.6
20260504213145 19 317 4.8 8.0 0.00 0.00 0.00 32 4457.0
20260504212642 20 335 16.1 22.5 0.00 0.00 0.00 32 4457.0
20260504212138 19 46 9.7 11.3 0.00 0.00 0.00 34 4457.0
20260504211636 19 10 11.3 11.3 0.00 0.00 0.00 34 4457.0
20260504211132 19 44 9.7 14.5 0.00 0.00 0.00 32 4457.3
20260504210630 19 54 14.5 22.5 0.00 0.00 0.00 36 4457.0
20260504210126 19 127 8.0 14.5 0.00 0.00 0.00 33 4457.3
20260504205624 19 87 3.2 4.8 0.00 0.00 0.00 33 4457.3
20260504205121 19 129 3.2 8.0 0.00 0.00 0.00 34 4457.0
20260504204620 19 87 3.2 8.0 0.00 0.00 0.00 34 4457.0
20260504204118 18 21 12.9 14.5 0.00 0.00 0.00 32 4457.0
20260504203616 18 78 4.8 4.8 0.00 0.00 0.00 32 4457.0
20260504203114 19 103 0.0 3.2 0.00 0.00 0.00 34 4457.3
20260504202609 18 42 3.2 4.8 0.00 0.00 0.00 35 4457.3
20260504202106 18 37 4.8 4.8 0.00 0.00 0.00 35 4457.7
20260504201603 19 73 3.2 8.0 0.00 0.00 0.00 34 4457.3
20260504201101 18 81 0.0 0.0 0.00 0.00 0.00 32 4457.3
20260504200556 18 45 16.1 22.5 0.00 0.00 0.00 36 4457.7
20260504200054 18 357 12.9 16.1 0.00 0.00 0.00 35 4457.7
20260504195550 18 71 0.0 3.2 0.00 0.00 0.00 37 4457.3
20260504195046 18 55 14.5 19.3 0.00 0.00 0.00 36 4457.7
20260504194543 18 40 12.9 16.1 0.00 0.00 0.00 37 4457.3
20260504194038 17 51 6.4 8.0 0.00 0.00 0.00 36 4457.7
20260504193535 17 76 11.3 16.1 0.00 0.00 0.00 37 4458.1
20260504193034 17 26 8.0 11.3 0.00 0.00 0.00 37 4457.7
20260504192532 17 46 9.7 14.5 0.00 0.00 0.00 38 4457.7
20260504192030 17 32 12.9 19.3 0.00 0.00 0.00 39 4457.7
20260504191527 17 76 8.0 11.3 0.00 0.00 0.00 38 4458.1
20260504191023 17 44 6.4 8.0 0.00 0.00 0.00 38 4458.1
20260504190520 17 71 11.3 14.5 0.00 0.00 0.00 35 4458.1
20260504190015 17 45 17.7 22.5 0.00 0.00 0.00 35 4458.1
20260504185513 17 87 14.5 19.3 0.00 0.00 0.00 34 4458.1
20260504185009 17 51 19.3 22.5 0.00 0.00 0.00 36 4458.1
20260504184504 17 37 6.4 8.0 0.00 0.00 0.00 39 4458.1
20260504184000 16 74 8.0 11.3 0.00 0.00 0.00 36 4458.4
20260504183457 17 51 17.7 22.5 0.00 0.00 0.00 35 4458.1
20260504182955 17 39 11.3 16.1 0.00 0.00 0.00 38 4458.4
20260504182452 16 47 11.3 16.1 0.00 0.00 0.00 38 4458.4
20260504181949 16 83 11.3 19.3 0.00 0.00 0.00 37 4458.7
20260504181446 16 71 12.9 16.1 0.00 0.00 0.00 38 4458.4
20260504180944 16 59 9.7 16.1 0.00 0.00 0.00 39 4458.4
20260504180443 16 41 17.7 24.1 0.00 0.00 0.00 36 4458.7
20260504175941 16 16 6.4 8.0 0.00 0.00 0.00 39 4458.4
20260504175438 16 16 12.9 19.3 0.00 0.00 0.00 39 4458.4
20260504174936 16 49 25.7 30.6 0.00 0.00 0.00 37 4458.7
20260504174433 16 47 11.3 14.5 0.00 0.00 0.00 40 4458.7
20260504173930 16 50 20.9 24.1 0.00 0.00 0.00 37 4458.7
20260504173426 16 55 14.5 16.1 0.00 0.00 0.00 38 4458.7
20260504172924 15 32 14.5 16.1 0.00 0.00 0.00 38 4458.7
20260504172420 16 48 22.5 27.4 0.00 0.00 0.00 37 4458.7
20260504171916 15 26 17.7 24.1 0.00 0.00 0.00 39 4458.7
20260504171414 15 47 17.7 22.5 0.00 0.00 0.00 37 4458.7
20260504170911 15 49 12.9 16.1 0.00 0.00 0.00 38 4459.2
20260504170407 15 51 20.9 30.6 0.00 0.00 0.00 39 4459.2
20260504160326 13 51 17.7 22.5 0.00 0.00 0.00 42 4459.5
20260504150750 13 23 4.8 11.3 0.00 0.00 0.00 49 4459.5
20260504150247 13 337 4.8 4.8 0.00 0.00 0.00 47 4459.9
20260504141217 8 172 1.6 3.2 0.00 0.00 0.00 76 4459.5
20260504140714 7 172 1.6 3.2 0.00 0.00 0.00 76 4459.5
20260504140209 7 172 0.0 0.0 0.00 0.00 0.00 75 4459.5
20260504130637 3 197 4.8 4.8 0.00 0.00 0.00 89 4458.4
20260504130134 3 197 0.0 0.0 0.00 0.00 0.00 89 4458.7